Dewpoint
71 71 71 71 70 70 71 70 69 69 71 69 67 68 68 72 73 72 73 74 75 75 75 76 77 76 74 76 78 77 75 76 75 73 74 73 71 70 67 69 71 70
72 72 72 70 71 72 72 71 72 71 72 73 71 70 71 71 71 72 72 72 75 74 76 75 76 76 76 74 77 75 76 76 75 71 74 75 72 70 69 70 69 72
71 71 70 70 69 71 70 71 72 72 70 70 71 72 70 70 71 72 72 71 72 72 74 76 76 76 75 75 77 75 73 76 75 72 74 75 73 73 73 69 68 70
72 71 69 68 68 69 69 71 71 72 72 71 70 70 70 70 72 72 73 73 73 74 74 74 75 74 75 75 77 74 74 76 74 76 75 75 74 73 73 73 71 69
70 70 69 69 69 70 71 70 69 70 70 71 70 72 73 74 74 72 73 73 74 73 74 74 75 73 75 76 76 75 74 73 74 77 75 74 75 74 72 72 73 72
71 72 72 69 70 71 69 69 70 69 70 69 70 70 71 73 73 73 72 72 71 71 70 71 72 71 72 73 74 74 73 71 71 75 75 76 73 71 69 70 73 73
68 70 69 69 68 69 70 70 70 71 69 69 71 70 71 71 72 73 73 72 71 72 70 71 73 73 72 74 75 75 75 75 75 75 76 74 75 74 71 72 73 74
68 68 69 68 67 68 70 69 69 70 71 71 70 71 72 71 72 71 72 72 71 71 72 71 73 75 72 72 73 73 74 71 72 75 76 74 75 75 74 70 72 75
68 68 68 68 66 66 67 67 68 70 71 71 69 69 71 71 70 70 72 73 72 72 73 73 74 73 73 72 72 73 74 72 69 72 73 74 73 74 73 72 72 73
69 68 66 66 65 66 67 68 67 68 70 69 69 68 68 71 71 71 72 74 73 73 73 73 72 72 71 72 73 74 73 73 73 73 73 73 73 72 72 73 72 72
67 67 66 66 65 64 65 67 67 67 69 69 69 68 68 70 72 72 73 74 71 72 72 73 72 72 72 71 71 72 72 72 73 73 73 73 73 73 73 74 74 73
68 68 67 66 65 64 65 66 66 67 67 69 69 69 70 69 70 71 71 74 74 72 72 73 74 74 74 73 72 71 71 71 72 73 72 72 72 72 72 73 72 73
71 71 71 68 67 66 65 67 67 66 66 67 69 69 69 69 68 71 72 72 73 72 71 73 74 73 74 75 74 73 72 72 70 70 70 71 71 71 71 72 72 71
73 73 72 72 70 70 69 67 67 67 67 68 69 69 68 68 68 68 69 70 71 71 72 73 74 74 75 76 75 73 72 72 72 71 71 71 71 73 73 72 71 70
74 73 74 74 73 72 71 70 70 69 69 69 70 70 67 68 68 67 68 69 70 71 72 71 70 71 71 73 75 73 73 72 74 74 73 73 73 72 71 73 72 71
73 72 73 73 74 74 74 73 72 71 70 71 71 70 70 71 71 70 68 68 69 70 71 70 70 69 74 76 75 74 75 72 74 73 73 74 74 73 72 72 72 72
73 73 73 72 72 73 73 74 73 72 73 73 72 71 72 72 71 70 69 69 69 69 70 70 69 69 76 70 71 74 75 75 74 74 75 75 74 74 74 72 72 73
74 74 73 72 73 72 72 72 74 75 74 74 72 71 73 72 72 71 72 70 69 69 69 69 69 74 68 69 69 70 74 73 73 72 72 72 73 73 73 73 74 73
74 74 73 73 73 72 72 73 72 74 76 75 73 73 74 74 74 73 72 74 71 71 69 69 69 69 67 68 68 68 70 74 71 73 73 72 72 73 73 74 74 75
75 73 73 73 73 72 72 71 71 71 75 75 75 74 75 75 73 73 73 73 73 71 72 71 71 69 66 68 67 67 68 71 72 71 73 73 73 73 72 73 75 74
73 72 72 72 72 72 72 72 72 71 72 74 74 74 75 75 74 73 73 73 71 71 71 72 67 60 62 63 64 65 67 71 73 72 74 74 74 74 74 73 73 73
73 72 71 72 72 72 71 71 70 69 68 70 71 72 73 73 73 73 72 72 72 71 70 70 64 58 59 60 60 62 66 70 72 73 74 74 74 75 74 75 75 75
72 72 71 71 71 70 70 70 70 70 71 72 72 72 71 72 72 72 73 72 72 72 72 71 67 59 56 57 58 59 63 71 72 72 74 74 74 74 75 74 73 75
71 71 70 70 70 70 69 69 70 70 71 71 72 72 73 72 71 70 71 71 71 71 70 70 65 61 55 55 56 58 64 70 73 73 73 73 73 74 75 76 75 74
70 70 70 70 70 70 69 69 69 70 71 72 72 73 72 73 72 71 70 70 70 70 69 69 67 65 55 54 55 57 66 72 71 72 72 72 72 73 74 73 74 73
70 70 70 70 69 70 70 70 71 71 71 72 72 72 71 72 72 70 69 68 69 69 68 68 67 66 60 53 53 55 58 70 72 71 71 72 72 72 72 72 72 72